SL-14 DEB, 45289

Orbit data source: Space-Track

SL-14 DEB, 45289 is space debris in LEO originally from a launch on Thu, 15 Aug 1991 UTC launched from the Plesetsk Missile And Space Complex (PKMTR). Debris objects in space refer to the collection of defunct objects orbiting the Earth. Examples of debris include non-operational satellites, rocket bodies, and fragments generated from explosions, collisions, or faulty payload assembly.

Loading next visibility...
Identifier
45289, 1991-056AB
Orbit
LEO
Country
Flag of CISCIS
Related business
Manufacturer
Unknown
Mission
Spacecraft
Bus & Motor
Unknown
Mass
Unknown
Launch date (UTC)
1991-08-15 (34 years ago)
Launch vehicle
Unknown
Launch site
Plesetsk Missile And Space Complex (PKMTR)
Object type
Payload
Rocket body
Debris
Shape & HBR
Unknown
Radar Cross Section
Small (<0.1 m²)

Expand to show TLE details & history
Last TLE update: 10 hours ago

TLE from 10 hours ago
0 SL-14 DEB
1 45289U 91056AB  25260.93316876  .00000116  00000-0  40539-3 0  9999
2 45289  82.5362  53.3594 0179103 138.3857 223.1038 12.83076587261343
Epoch: 2025-09-17T22:23Z
TLE epoch observation values (Epoch: 2025-09-17T22:23:45.78Z)
Latitude
0.00004°
Longitude
80.31664°
Altitude
1,433.821 km
Speed
7.097 km/s
True Right ascension
03h 33m 26s
True Declination
0° 00' 00"
Sunlit
Object was in daylight at epoch
Visualization orbit readout
Latitude
Unknown
Longitude
Unknown
Altitude
Unknown
Speed
Unknown
Apparent Right ascension
Unknown
Apparent Declination
Unknown
Sunlit
N/A
Visualization observer readout
Local Sidereal Time
01:14:15
Azimuth
Unknown
Elevation
Unknown
Doppler factor
Unknown
Orbital elements
Apogee altitude
1,464.407 km
Perigee altitude
1,188.426 km
Semi-major axis
7,704.554 km
Eccentricity
0.01791
Inclination
82.5362°
RAAN
53.3594°
Arg. of periapsis
138.3857°
True anomaly
221.72407°
Mean anomaly
223.1038°
Eccentric anomaly
222.41169°
Mean motion
3.20939 °/min
Orbital period
112.17 mins
BSTAR
0.00040539
Loading maneuver chart data...
Computing Atmospheric mass density...
Loading historical data...
Loading historical data...
Loading historical data...
Loading historical data...
Loading historical data...
Loading historical data...
Loading historical data...

Documentation

Showing up to 5 results
|